| time (UTC) | temp F | wind direction | speed MPH | gust MPH | rain 1hr in | rain 24hr in | rain mn in | humidity % | barometer mb |
| 20260502190548 | 70 | 264 | 3.0 | 7.0 | 0.00 | 0.23 | 0.01 | 50 | 1022.5 |
| 20260502190047 | 71 | 54 | 3.0 | 7.0 | 0.00 | 0.23 | 0.01 | 51 | 1022.5 |
| 20260502185547 | 71 | 17 | 2.0 | 9.0 | 0.00 | 0.30 | 0.01 | 50 | 1022.5 |
| 20260502185047 | 71 | 38 | 2.0 | 9.0 | 0.00 | 0.30 | 0.01 | 51 | 1022.5 |
| 20260502184551 | 70 | 351 | 2.0 | 9.0 | 0.00 | 0.30 | 0.01 | 49 | 1022.6 |
| 20260502184045 | 70 | 28 | 2.0 | 8.0 | 0.00 | 0.30 | 0.01 | 54 | 1022.6 |
| 20260502183548 | 70 | 284 | 2.0 | 8.0 | 0.00 | 0.30 | 0.01 | 50 | 1022.7 |
| 20260502183050 | 69 | 0 | 2.0 | 7.0 | 0.00 | 0.30 | 0.01 | 51 | 1022.7 |
| 20260502182551 | 69 | 328 | 2.0 | 9.0 | 0.00 | 0.30 | 0.01 | 57 | 1022.7 |
| 20260502182050 | 68 | 355 | 1.0 | 11.0 | 0.00 | 0.30 | 0.01 | 56 | 1022.7 |
| 20260502181607 | 69 | 245 | 3.0 | 11.0 | 0.00 | 0.30 | 0.01 | 56 | 1022.8 |
| 20260502181048 | 68 | 304 | 1.0 | 8.0 | 0.00 | 0.30 | 0.01 | 56 | 1022.9 |
| 20260502180551 | 69 | 0 | 3.0 | 8.0 | 0.00 | 0.30 | 0.01 | 59 | 1023.0 |
| 20260502164048 | 66 | 319 | 4.0 | 12.0 | 0.00 | 0.52 | 0.01 | 60 | 1024.0 |
| 20260502163550 | 66 | 101 | 2.0 | 8.0 | 0.00 | 0.52 | 0.01 | 62 | 1024.0 |
| 20260502163056 | 66 | 93 | 2.0 | 8.0 | 0.00 | 0.52 | 0.01 | 60 | 1024.0 |
| 20260502162549 | 66 | 138 | 1.0 | 8.0 | 0.00 | 0.52 | 0.01 | 60 | 1024.0 |
| 20260502162052 | 65 | 333 | 1.0 | 9.0 | 0.00 | 0.52 | 0.01 | 60 | 1023.9 |
| 20260502161549 | 65 | 303 | 1.0 | 9.0 | 0.00 | 0.52 | 0.01 | 64 | 1023.9 |
| 20260502161050 | 65 | 35 | 2.0 | 9.0 | 0.00 | 0.52 | 0.01 | 62 | 1023.9 |
| 20260502160550 | 65 | 317 | 2.0 | 8.0 | 0.00 | 0.52 | 0.01 | 58 | 1023.9 |
| 20260502152123 | 62 | 0 | 1.0 | 8.0 | 0.00 | 0.56 | 0.01 | 68 | 1023.7 |
| 20260502151602 | 61 | 304 | 2.0 | 9.0 | 0.00 | 0.56 | 0.01 | 68 | 1023.7 |
| 20260502151051 | 61 | 308 | 2.0 | 9.0 | 0.00 | 0.56 | 0.01 | 70 | 1023.7 |
| 20260502150548 | 61 | 307 | 1.0 | 9.0 | 0.00 | 0.56 | 0.01 | 70 | 1023.7 |
| 20260502130548 | 51 | 304 | 2.0 | 6.0 | 0.00 | 0.69 | 0.00 | 89 | 1022.4 |
| 20260502123548 | 49 | 313 | 2.0 | 5.0 | 0.00 | 0.80 | 0.00 | 92 | 1021.9 |
| 20260502123053 | 48 | 319 | 1.0 | 3.0 | 0.00 | 0.80 | 0.00 | 93 | 1021.9 |
| 20260502122549 | 48 | 325 | 1.0 | 3.0 | 0.00 | 0.80 | 0.00 | 93 | 1021.8 |
| 20260502122047 | 48 | 307 | 1.0 | 3.0 | 0.00 | 0.80 | 0.00 | 93 | 1021.6 |
| 20260502121556 | 48 | 0 | 0.0 | 3.0 | 0.00 | 0.80 | 0.00 | 93 | 1021.4 |
| 20260502121048 | 47 | 0 | 1.0 | 4.0 | 0.00 | 0.80 | 0.00 | 93 | 1021.5 |
| 20260502120550 | 47 | 323 | 1.0 | 4.0 | 0.00 | 0.80 | 0.00 | 93 | 1021.5 |
| 20260502115546 | 47 | 0 | 1.0 | 6.0 | 0.00 | 1.00 | 0.00 | 93 | 1021.5 |
| 20260502115049 | 47 | 310 | 1.0 | 6.0 | 0.00 | 1.00 | 0.00 | 93 | 1021.3 |
| 20260502114556 | 47 | 300 | 2.0 | 4.0 | 0.00 | 1.00 | 0.00 | 93 | 1021.2 |
| 20260502114048 | 47 | 0 | 0.0 | 3.0 | 0.00 | 1.00 | 0.00 | 93 | 1021.1 |
| 20260502113547 | 47 | 0 | 0.0 | 4.0 | 0.00 | 1.00 | 0.00 | 93 | 1021.1 |
| 20260502113059 | 47 | 306 | 1.0 | 4.0 | 0.00 | 1.00 | 0.00 | 93 | 1021.0 |
| 20260502112546 | 47 | 349 | 0.0 | 4.0 | 0.00 | 1.00 | 0.00 | 93 | 1020.9 |
| 20260502112048 | 47 | 0 | 1.0 | 4.0 | 0.00 | 1.00 | 0.00 | 93 | 1020.9 |
| 20260502111551 | 47 | 313 | 0.0 | 3.0 | 0.00 | 1.00 | 0.00 | 93 | 1020.9 |
| 20260502111047 | 47 | 323 | 0.0 | 4.0 | 0.00 | 1.00 | 0.00 | 93 | 1020.8 |
| 20260502110549 | 47 | 346 | 1.0 | 4.0 | 0.00 | 1.00 | 0.00 | 93 | 1020.7 |
| 20260502110058 | 47 | 308 | 0.0 | 2.0 | 0.00 | 1.00 | 0.00 | 93 | 1020.8 |
| 20260502105547 | 47 | 297 | 0.0 | 2.0 | 0.00 | 1.09 | 0.00 | 93 | 1020.7 |
| 20260502105046 | 47 | 302 | 1.0 | 3.0 | 0.00 | 1.09 | 0.00 | 93 | 1020.7 |
| 20260502104552 | 47 | 0 | 0.0 | 3.0 | 0.00 | 1.09 | 0.00 | 93 | 1020.7 |
| 20260502104046 | 47 | 0 | 0.0 | 3.0 | 0.00 | 1.09 | 0.00 | 93 | 1020.6 |
| 20260502103546 | 47 | 297 | 0.0 | 3.0 | 0.00 | 1.09 | 0.00 | 93 | 1020.5 |
| 20260502103058 | 47 | 0 | 0.0 | 2.0 | 0.00 | 1.09 | 0.00 | 93 | 1020.5 |
| 20260502102547 | 47 | 303 | 0.0 | 3.0 | 0.00 | 1.09 | 0.00 | 93 | 1020.4 |
| 20260502102047 | 48 | 0 | 1.0 | 3.0 | 0.00 | 1.09 | 0.00 | 93 | 1020.3 |
| 20260502101551 | 48 | 319 | 1.0 | 3.0 | 0.00 | 1.09 | 0.00 | 93 | 1020.2 |
| 20260502101047 | 48 | 0 | 0.0 | 3.0 | 0.00 | 1.09 | 0.00 | 93 | 1020.2 |
| 20260502100547 | 48 | 261 | 1.0 | 4.0 | 0.00 | 1.09 | 0.00 | 93 | 1019.9 |
| 20260502091048 | 48 | 18 | 1.0 | 8.0 | 0.00 | 1.25 | 0.00 | 93 | 1018.9 |
| 20260502090550 | 49 | 23 | 3.0 | 8.0 | 0.00 | 1.25 | 0.00 | 93 | 1018.9 |
| 20260502080104 | 49 | 360 | 2.0 | 6.0 | 0.00 | 1.48 | 0.00 | 94 | 1018.6 |
| 20260502071045 | 50 | 0 | 1.0 | 4.0 | 0.00 | 1.55 | 0.00 | 93 | 1018.9 |
| 20260502070547 | 50 | 337 | 1.0 | 4.0 | 0.00 | 1.55 | 0.00 | 93 | 1018.8 |
| 20260502070055 | 50 | 321 | 2.0 | 4.0 | 0.00 | 1.55 | 0.00 | 93 | 1018.7 |
| 20260502065549 | 50 | 0 | 1.0 | 4.0 | 0.00 | 1.55 | 0.00 | 93 | 1018.7 |
| 20260502065053 | 50 | 313 | 1.0 | 4.0 | 0.00 | 1.55 | 0.00 | 93 | 1018.8 |
| 20260502064559 | 50 | 313 | 1.0 | 4.0 | 0.00 | 1.55 | 0.00 | 93 | 1018.7 |
| 20260502064049 | 50 | 0 | 1.0 | 4.0 | 0.00 | 1.55 | 0.00 | 93 | 1018.6 |
| 20260502063547 | 50 | 5 | 0.0 | 4.0 | 0.00 | 1.55 | 0.00 | 93 | 1018.7 |
| 20260502063047 | 50 | 313 | 1.0 | 4.0 | 0.00 | 1.55 | 0.00 | 93 | 1018.7 |
| 20260502062547 | 50 | 311 | 0.0 | 3.0 | 0.00 | 1.55 | 0.00 | 93 | 1018.6 |
| 20260502062048 | 50 | 323 | 1.0 | 3.0 | 0.00 | 1.55 | 0.00 | 93 | 1018.7 |
| 20260502061549 | 50 | 327 | 1.0 | 4.0 | 0.00 | 1.55 | 0.00 | 93 | 1018.8 |
| 20260502061047 | 50 | 0 | 0.0 | 4.0 | 0.00 | 1.55 | 0.00 | 93 | 1018.8 |
| 20260502060545 | 50 | 18 | 0.0 | 3.0 | 0.00 | 1.55 | 0.00 | 93 | 1018.7 |
| 20260502060048 | 50 | 350 | 1.0 | 3.0 | 0.00 | 1.55 | 0.00 | 93 | 1019.0 |
| 20260502055545 | 50 | 0 | 1.0 | 3.0 | 0.00 | 1.55 | 0.00 | 93 | 1019.0 |
| 20260502055047 | 50 | 0 | 0.0 | 3.0 | 0.00 | 1.55 | 0.00 | 93 | 1019.1 |
| 20260502054612 | 50 | 319 | 1.0 | 4.0 | 0.00 | 1.55 | 0.00 | 93 | 1019.0 |
| 20260502054048 | 50 | 0 | 1.0 | 4.0 | 0.00 | 1.55 | 0.00 | 93 | 1019.1 |
| 20260502053549 | 50 | 0 | 1.0 | 5.0 | 0.00 | 1.55 | 0.00 | 93 | 1019.2 |
| 20260502053053 | 50 | 306 | 1.0 | 5.0 | 0.00 | 1.55 | 0.00 | 93 | 1019.0 |
| 20260502052549 | 50 | 313 | 0.0 | 4.0 | 0.00 | 1.55 | 0.00 | 92 | 1019.1 |
| 20260502052052 | 50 | 0 | 1.0 | 4.0 | 0.00 | 1.55 | 0.00 | 92 | 1019.2 |
| 20260502051554 | 50 | 325 | 1.0 | 4.0 | 0.00 | 1.55 | 0.00 | 92 | 1019.1 |
| 20260502051050 | 51 | 328 | 1.0 | 5.0 | 0.00 | 1.55 | 0.00 | 92 | 1019.0 |
| 20260502050547 | 51 | 0 | 1.0 | 5.0 | 0.00 | 1.55 | 0.00 | 92 | 1018.9 |
| 20260502050055 | 51 | 22 | 1.0 | 4.0 | 0.00 | 1.55 | 0.00 | 92 | 1018.7 |
| 20260502045547 | 51 | 0 | 0.0 | 4.0 | 0.00 | 1.55 | 1.55 | 92 | 1018.7 |
| 20260502045047 | 51 | 0 | 1.0 | 4.0 | 0.00 | 1.55 | 1.55 | 92 | 1018.7 |
| 20260502044549 | 51 | 14 | 0.0 | 4.0 | 0.00 | 1.55 | 1.55 | 92 | 1018.5 |
| 20260502044045 | 51 | 0 | 1.0 | 4.0 | 0.00 | 1.55 | 1.55 | 92 | 1018.4 |
| 20260502043545 | 51 | 0 | 0.0 | 4.0 | 0.00 | 1.55 | 1.55 | 92 | 1018.5 |
| 20260502043056 | 51 | 20 | 0.0 | 5.0 | 0.00 | 1.55 | 1.55 | 92 | 1018.5 |
| 20260502042547 | 51 | 0 | 1.0 | 5.0 | 0.00 | 1.55 | 1.55 | 92 | 1018.5 |
| 20260502042047 | 51 | 331 | 1.0 | 5.0 | 0.00 | 1.55 | 1.55 | 92 | 1018.7 |
| 20260502041553 | 51 | 342 | 1.0 | 5.0 | 0.00 | 1.55 | 1.55 | 92 | 1018.7 |
| 20260502041047 | 51 | 39 | 2.0 | 7.0 | 0.00 | 1.55 | 1.55 | 92 | 1018.7 |
| 20260502040548 | 51 | 257 | 1.0 | 7.0 | 0.00 | 1.55 | 1.55 | 92 | 1018.7 |
| 20260502035548 | 51 | 0 | 1.0 | 5.0 | 0.00 | 1.55 | 1.55 | 92 | 1018.7 |
| 20260502035048 | 52 | 265 | 1.0 | 8.0 | 0.00 | 1.55 | 1.55 | 92 | 1018.7 |
| 20260502034555 | 51 | 273 | 1.0 | 8.0 | 0.00 | 1.55 | 1.55 | 92 | 1018.7 |
| 20260502034049 | 51 | 0 | 2.0 | 8.0 | 0.00 | 1.55 | 1.55 | 91 | 1018.6 |
| 20260502033547 | 52 | 10 | 1.0 | 5.0 | 0.00 | 1.55 | 1.55 | 91 | 1018.5 |
| 20260502033050 | 52 | 0 | 2.0 | 5.0 | 0.00 | 1.55 | 1.55 | 91 | 1018.5 |
| 20260502032547 | 52 | 0 | 1.0 | 8.0 | 0.00 | 1.55 | 1.55 | 91 | 1018.5 |
| 20260502032048 | 52 | 300 | 2.0 | 8.0 | 0.00 | 1.55 | 1.55 | 91 | 1018.5 |
| 20260502031609 | 52 | 0 | 2.0 | 8.0 | 0.00 | 1.55 | 1.55 | 91 | 1018.5 |
| 20260502031047 | 52 | 329 | 1.0 | 8.0 | 0.00 | 1.55 | 1.55 | 91 | 1018.4 |
| 20260502030547 | 52 | 79 | 2.0 | 10.0 | 0.00 | 1.55 | 1.55 | 91 | 1018.4 |
| 20260502030054 | 52 | 333 | 2.0 | 10.0 | 0.00 | 1.55 | 1.55 | 91 | 1018.2 |
| 20260502025547 | 52 | 91 | 3.0 | 10.0 | 0.00 | 1.55 | 1.55 | 91 | 1018.1 |
| 20260502025046 | 52 | 323 | 2.0 | 8.0 | 0.00 | 1.55 | 1.55 | 91 | 1018.0 |
| 20260502024555 | 52 | 53 | 1.0 | 11.0 | 0.00 | 1.55 | 1.55 | 91 | 1017.9 |
| 20260502024048 | 52 | 85 | 2.0 | 11.0 | 0.00 | 1.55 | 1.55 | 92 | 1017.8 |
| 20260502023548 | 52 | 307 | 2.0 | 6.0 | 0.00 | 1.55 | 1.55 | 92 | 1017.6 |
| 20260502023055 | 52 | 315 | 0.0 | 7.0 | 0.00 | 1.55 | 1.55 | 91 | 1017.6 |
| 20260502022548 | 52 | 302 | 1.0 | 7.0 | 0.00 | 1.55 | 1.55 | 91 | 1017.6 |
| 20260502022046 | 52 | 227 | 1.0 | 5.0 | 0.00 | 1.55 | 1.55 | 91 | 1017.5 |
| 20260502021552 | 52 | 304 | 0.0 | 8.0 | 0.00 | 1.55 | 1.55 | 91 | 1017.5 |
| 20260502021047 | 52 | 355 | 2.0 | 8.0 | 0.00 | 1.55 | 1.55 | 91 | 1017.6 |
| 20260502020549 | 52 | 252 | 1.0 | 8.0 | 0.00 | 1.55 | 1.55 | 91 | 1017.4 |
| 20260502020110 | 52 | 305 | 2.0 | 8.0 | 0.00 | 1.55 | 1.55 | 91 | 1017.2 |
| 20260502015547 | 52 | 0 | 2.0 | 9.0 | 0.00 | 1.55 | 1.55 | 92 | 1017.1 |
| 20260502015047 | 52 | 256 | 2.0 | 9.0 | 0.00 | 1.55 | 1.55 | 92 | 1016.9 |
| 20260502014555 | 52 | 89 | 2.0 | 8.0 | 0.00 | 1.55 | 1.55 | 92 | 1016.8 |
| 20260502014051 | 52 | 355 | 2.0 | 10.0 | 0.00 | 1.55 | 1.55 | 92 | 1016.8 |
| 20260502013547 | 52 | 0 | 2.0 | 10.0 | 0.00 | 1.55 | 1.55 | 92 | 1016.7 |
| 20260502013053 | 52 | 65 | 2.0 | 10.0 | 0.00 | 1.55 | 1.55 | 92 | 1016.8 |
| 20260502012548 | 52 | 24 | 2.0 | 8.0 | 0.00 | 1.55 | 1.55 | 93 | 1016.8 |
| 20260502012048 | 52 | 37 | 2.0 | 8.0 | 0.00 | 1.55 | 1.55 | 93 | 1016.7 |
| 20260502011553 | 52 | 313 | 1.0 | 7.0 | 0.00 | 1.55 | 1.55 | 93 | 1016.5 |
| 20260502011049 | 52 | 313 | 1.0 | 7.0 | 0.00 | 1.55 | 1.55 | 93 | 1016.4 |
| 20260502010548 | 52 | 109 | 2.0 | 8.0 | 0.00 | 1.55 | 1.55 | 93 | 1016.3 |
| 20260502010051 | 52 | 273 | 2.0 | 11.0 | 0.00 | 1.55 | 1.55 | 93 | 1016.1 |
| 20260502005549 | 53 | 19 | 3.0 | 11.0 | 0.00 | 1.55 | 1.55 | 93 | 1016.1 |
| 20260502005049 | 53 | 73 | 3.0 | 11.0 | 0.00 | 1.55 | 1.55 | 93 | 1016.0 |
| 20260502004557 | 53 | 22 | 4.0 | 11.0 | 0.00 | 1.55 | 1.55 | 94 | 1015.9 |
| 20260502004049 | 53 | 355 | 4.0 | 10.0 | 0.00 | 1.55 | 1.55 | 94 | 1015.9 |
| 20260502003546 | 54 | 29 | 4.0 | 11.0 | 0.00 | 1.55 | 1.55 | 94 | 1015.7 |
| 20260502003107 | 54 | 293 | 3.0 | 11.0 | 0.00 | 1.55 | 1.55 | 94 | 1015.6 |
| 20260502002547 | 54 | 71 | 3.0 | 12.0 | 0.00 | 1.55 | 1.55 | 94 | 1015.5 |
| 20260502002049 | 54 | 355 | 2.0 | 12.0 | 0.00 | 1.55 | 1.55 | 94 | 1015.5 |
| 20260502001626 | 54 | 360 | 2.0 | 8.0 | 0.00 | 1.55 | 1.55 | 94 | 1015.5 |
| 20260502001047 | 54 | 32 | 1.0 | 8.0 | 0.00 | 1.55 | 1.55 | 94 | 1015.3 |
| 20260502000547 | 54 | 13 | 2.0 | 10.0 | 0.00 | 1.55 | 1.55 | 94 | 1015.3 |
| 20260502000053 | 54 | 5 | 2.0 | 10.0 | 0.00 | 1.55 | 1.55 | 94 | 1015.2 |
| 20260501235546 | 54 | 105 | 3.0 | 10.0 | 0.00 | 1.55 | 1.55 | 94 | 1015.0 |
| 20260501235046 | 55 | 53 | 3.0 | 10.0 | 0.00 | 1.55 | 1.55 | 94 | 1014.9 |
| 20260501234549 | 55 | 24 | 2.0 | 11.0 | 0.00 | 1.55 | 1.55 | 94 | 1014.6 |
| 20260501234052 | 55 | 73 | 2.0 | 11.0 | 0.00 | 1.55 | 1.55 | 94 | 1014.4 |
| 20260501233549 | 55 | 318 | 4.0 | 11.0 | 0.00 | 1.55 | 1.55 | 94 | 1014.5 |
| 20260501233048 | 55 | 301 | 3.0 | 11.0 | 0.00 | 1.55 | 1.55 | 94 | 1014.3 |
| 20260501232549 | 55 | 325 | 2.0 | 11.0 | 0.00 | 1.55 | 1.55 | 94 | 1014.3 |
| 20260501232045 | 55 | 307 | 3.0 | 12.0 | 0.00 | 1.55 | 1.55 | 94 | 1014.3 |
| 20260501231551 | 55 | 307 | 3.0 | 12.0 | 0.00 | 1.55 | 1.55 | 94 | 1014.3 |
| 20260501231045 | 55 | 333 | 2.0 | 9.0 | 0.00 | 1.55 | 1.55 | 94 | 1014.1 |
| 20260501230545 | 55 | 22 | 3.0 | 13.0 | 0.00 | 1.55 | 1.55 | 94 | 1014.5 |
| 20260501230051 | 55 | 311 | 3.0 | 13.0 | 0.00 | 1.55 | 1.55 | 94 | 1014.5 |
| 20260501225547 | 55 | 350 | 2.0 | 13.0 | 0.00 | 1.55 | 1.55 | 94 | 1014.4 |
| 20260501225046 | 56 | 298 | 3.0 | 10.0 | 0.00 | 1.55 | 1.55 | 94 | 1014.4 |
| 20260501224558 | 56 | 348 | 2.0 | 11.0 | 0.00 | 1.55 | 1.55 | 94 | 1014.3 |
| 20260501224046 | 56 | 5 | 3.0 | 11.0 | 0.01 | 1.55 | 1.55 | 94 | 1014.3 |
| 20260501223548 | 56 | 18 | 3.0 | 15.0 | 0.02 | 1.55 | 1.55 | 94 | 1014.2 |
| 20260501223049 | 56 | 11 | 3.0 | 15.0 | 0.02 | 1.55 | 1.55 | 94 | 1013.9 |
| 20260501222546 | 56 | 45 | 4.0 | 13.0 | 0.03 | 1.55 | 1.55 | 94 | 1013.9 |
| 20260501222049 | 57 | 313 | 4.0 | 14.0 | 0.04 | 1.55 | 1.55 | 94 | 1014.0 |
| 20260501221551 | 57 | 307 | 4.0 | 14.0 | 0.05 | 1.55 | 1.55 | 95 | 1013.9 |
| 20260501221045 | 57 | 12 | 3.0 | 10.0 | 0.06 | 1.55 | 1.55 | 95 | 1013.7 |
| 20260501220547 | 57 | 350 | 5.0 | 10.0 | 0.07 | 1.55 | 1.55 | 95 | 1013.6 |
| 20260501220051 | 57 | 324 | 4.0 | 11.0 | 0.09 | 1.55 | 1.55 | 95 | 1013.7 |
| 20260501215549 | 57 | 321 | 3.0 | 11.0 | 0.11 | 1.55 | 1.55 | 95 | 1013.7 |
| 20260501215047 | 56 | 36 | 4.0 | 11.0 | 0.11 | 1.55 | 1.55 | 94 | 1013.6 |
| 20260501214550 | 56 | 315 | 5.0 | 12.0 | 0.12 | 1.55 | 1.55 | 94 | 1013.6 |
| 20260501214047 | 56 | 342 | 4.0 | 12.0 | 0.11 | 1.54 | 1.54 | 95 | 1013.3 |
| 20260501213546 | 56 | 25 | 4.0 | 10.0 | 0.11 | 1.53 | 1.53 | 95 | 1013.5 |
| 20260501213053 | 56 | 322 | 3.0 | 10.0 | 0.12 | 1.53 | 1.53 | 95 | 1013.7 |
| 20260501212547 | 56 | 277 | 3.0 | 10.0 | 0.12 | 1.52 | 1.52 | 95 | 1013.5 |
| 20260501212047 | 56 | 329 | 4.0 | 12.0 | 0.11 | 1.51 | 1.51 | 95 | 1013.7 |
| 20260501211552 | 56 | 175 | 3.0 | 12.0 | 0.10 | 1.50 | 1.50 | 94 | 1013.7 |
| 20260501211049 | 56 | 79 | 2.0 | 11.0 | 0.09 | 1.49 | 1.49 | 94 | 1013.3 |
| 20260501210545 | 56 | 296 | 4.0 | 11.0 | 0.08 | 1.48 | 1.48 | 94 | 1013.1 |
| 20260501210056 | 56 | 0 | 4.0 | 10.0 | 0.06 | 1.46 | 1.46 | 94 | 1013.5 |
| 20260501205551 | 57 | 267 | 2.0 | 11.0 | 0.04 | 1.44 | 1.44 | 94 | 1013.2 |
| 20260501205046 | 57 | 5 | 3.0 | 11.0 | 0.04 | 1.44 | 1.44 | 95 | 1013.6 |
| 20260501204556 | 57 | 309 | 2.0 | 11.0 | 0.03 | 1.43 | 1.43 | 95 | 1013.6 |
| 20260501204045 | 57 | 327 | 4.0 | 11.0 | 0.03 | 1.43 | 1.43 | 95 | 1013.1 |
| 20260501203545 | 57 | 332 | 4.0 | 15.0 | 0.02 | 1.42 | 1.42 | 94 | 1013.3 |
| 20260501203053 | 57 | 307 | 5.0 | 15.0 | 0.01 | 1.41 | 1.41 | 94 | 1013.3 |
| 20260501202545 | 57 | 24 | 4.0 | 14.0 | 0.00 | 1.40 | 1.40 | 94 | 1012.9 |
| 20260501202045 | 57 | 15 | 3.0 | 9.0 | 0.00 | 1.40 | 1.40 | 95 | 1012.6 |
| 20260501201553 | 57 | 355 | 3.0 | 11.0 | 0.00 | 1.40 | 1.40 | 95 | 1012.1 |
| 20260501201048 | 57 | 336 | 3.0 | 11.0 | 0.01 | 1.40 | 1.40 | 95 | 1012.7 |
| 20260501200548 | 58 | 290 | 2.0 | 11.0 | 0.04 | 1.40 | 1.40 | 95 | 1012.2 |
| 20260501200053 | 58 | 351 | 2.0 | 11.0 | 0.07 | 1.40 | 1.40 | 95 | 1012.2 |
| 20260501195547 | 58 | 290 | 4.0 | 11.0 | 0.08 | 1.40 | 1.40 | 95 | 1012.3 |
| 20260501195048 | 58 | 321 | 3.0 | 9.0 | 0.09 | 1.40 | 1.40 | 95 | 1012.3 |
| 20260501194553 | 59 | 295 | 2.0 | 7.0 | 0.11 | 1.40 | 1.40 | 95 | 1012.1 |
| 20260501194046 | 59 | 44 | 1.0 | 8.0 | 0.12 | 1.40 | 1.40 | 95 | 1011.8 |
| 20260501193550 | 59 | 281 | 3.0 | 8.0 | 0.12 | 1.40 | 1.40 | 95 | 1011.4 |
| 20260501193050 | 59 | 0 | 2.0 | 9.0 | 0.12 | 1.40 | 1.40 | 95 | 1011.0 |
| 20260501192549 | 59 | 46 | 2.0 | 9.0 | 0.12 | 1.40 | 1.40 | 95 | 1011.6 |
| 20260501192047 | 58 | 306 | 2.0 | 8.0 | 0.12 | 1.40 | 1.40 | 95 | 1012.4 |
| 20260501191551 | 58 | 315 | 2.0 | 8.0 | 0.12 | 1.40 | 1.40 | 95 | 1012.2 |
| 20260501191048 | 58 | 9 | 2.0 | 8.0 | 0.11 | 1.39 | 1.39 | 95 | 1012.5 |